Погода в Жалтыре

Погода в Жалтыре : погода сейчас, прогноз погоды и архив. Всё, что Вы хотите узнать о погоде в Жалтыре!

Поиск расширенной информации на нашем сайте:

Другие новости

Новости СМИ2

Главная страница сайта

Новости сайта

03.07.2017

Напоминаем, что на нашем специализированном сайте Метеоцентр.Азия вы можете получить высокодетализированные автоматические прогнозы погоды по пунктам России, СНГ и мира в авиационном формате (включающие направление и скорость ветра, видимость, явления погоды, количество и форму облачности, нижнюю и верхнюю границу облачности).

Рекомендуем: традиционные стили ушу

Погода в Жалтыре - сегодня

Время (UTC), дата Ветер
(°,м/с) 
Видим.   Явления Облачность Т
(°С)
Тd
(°С)
f(%) Тe
(°С)
Pmin
(гПа)
dP
(гПа)
Po
(мм)
O2
(г/м3)
Тmin Tmax R s Состояние
почвы
21 15.02.18 260 (З) н/о  слаб. снег  10/0 средняя 
[As op]
-21.2 -24.3 76 -22  1034.6  1.5  745  327           
00 16.02.18 270 (З) н/о  {снег}  ясно 
-23.8 -26.7 77 -27  1036.9  1.8  746  331           
06 16.02.18 240 (ЮЗ) 4000 м    ясно 
-20.8 -24.2 74 -24  1040.4  1.7  749  328  -26.3    0.3     
09 16.02.18 250 (З) 4000 м    ясно 
-16.8 -21.2 69 -19  1041  1.2  750  324           
21 16.02.18 200 (Ю) н/о  слаб. снег  10/0 средняя 
[As op]
-17.8 -20.1 82 -18  1042.4  751  325           
09 17.02.18 180 (Ю) 4000 м  {снег}  ясно 
-15.4 -19 74 -15  1042.8  -0.1  751  322           
12 17.02.18 210 (ЮЗ) 4000 м  {снег}  ясно 
-15.8 -19.7 72 -16  1042.8  751  323           
18 17.02.18 140 (ЮВ) н/о    ясно 
-22.4 -25.5 76 -23  1044.2  -0.2  751  332    -15  0.2     
21 17.02.18 170 (Ю) н/о    ясно 
-24.7 -27.6 77 -25  1044.8  0.2  752  335           
00 18.02.18 180 (Ю) н/о    10/0 верхняя 
[Cs]
-24.5 -27.2 78 -25  1044.3  -0.4  751  334           
03 18.02.18 200 (Ю) 4000 м  слаб. снег  10/10 600 м 
[Sc]
-25.2 -28.1 77 -26  1045.2  0.7  752  336      0.0  20  равномерный
сухой снег
100% 
09 18.02.18 210 (ЮЗ) 4000 м  {снег}  ясно 
-20 -23.6 73 -23  1043.8  -0.6  751  328           
12 18.02.18 230 (ЮЗ) 4000 м  {снег}  ясно 
-19.2 -22.5 75 -23  1043.8  0.1  752  327           
21 18.02.18 200 (Ю) н/о  {снег}  6/0 средняя 
[As op]
-23 -25.8 78 -26  1044.4  -0.4  751  332           
00 19.02.18 170 (Ю) н/о  {снег}  ясно 
-23.6 -26.7 76 -24  1044.7  0.2  752  333           
06 19.02.18 160 (Ю) 4000 м    ясно 
-19.8 -23.3 74 -23  1044.6  752  328  -24.7    0.0     
09 19.02.18 160 (Ю) 4000 м    ясно 
-17.7 -21.7 71 -22  1043.6  -0.7  752  325           
12 19.02.18 160 (Ю) 4000 м    5/0 верхняя 
[Ci fib]
-17.3 -21.1 72 -20  1043  -0.5  751  325           
15 19.02.18 150 (ЮВ) н/о    4/0 верхняя 
[Ci fib]
-18 -21.4 75 -21  1042.2  -0.9  750  325    -16       
18 19.02.18 120 (ЮВ) н/о    ясно 
-19 -21.9 78 -22  1040.4  -1.8  749  326    -16       
21 19.02.18 150 (ЮВ) н/о    ясно 
-18.6 -21.3 79 -21  1038.9  -1.4  748  325           
00 20.02.18 120 (ЮВ) н/о    ясно 
-17.8 -20.9 77 -22  1036.9  -1.8  747  323           
06 20.02.18 160 (Ю) 4000 м    3/0 верхняя 
[Ci]
-15.1 -19.7 68 -19  1034.2  -1.2  745  319  -20.2         
09 20.02.18 150 (ЮВ) 4000 м    6/0 верхняя 
[Ci]
-11.3 -17.1 62 -13  1031.3  -2.2  743  314           
12 20.02.18 050 (СВ) 4000 м    8/0 верхняя 
[Ci]
-9 -16.9 53 -9  1029  -1.9  742  311           
Время (UTC), дата Ветер
(°,м/с) 
Видим.   Явления Облачность Т
(°С)
Тd
(°С)
f(%) Тe
(°С)
Pmin
(гПа)
dP
(гПа)
Po
(мм)
O2
(г/м3)
Тmin Tmax R s Состояние
почвы

Для получения пояснительной информации подведите курсор к названию столбца.

ПОГОДА в Жалтыре - архив

Всё, что Вы хотите узнать о погоде в Жалтыре - удобно и подробно!

Выберите нужную дату (начиная с 1 января 2015* года) и нажмите кнопку "Найти".
Будут отображены архивные сводки погоды по пункту Жалтыр, начиная с указанной даты.


Отображать данные в формате CSV (для использования в таблицах Excel)


Внимание! Наш архив погоды предназначен исключительно для личного некоммерческого использования в познавательных целях. Если Вам необходимы официальные справки о состоянии погоды (для производственных, юридических, коммерческих и т.п. целей), обращайтесь в органы Росгидромета.

*Примечание: данная дата относится к архиву по метеостанциям СССР (Россия, СНГ, Балтия).
Архив по метеостанциям Зарубежной Европы и Азии (кроме Китая) хранится 10 дней, по другим регионам земного шара (Китай, Африка, Америка, Австралия, Океания) - 1 день.

Жалтыр - район местоположения метеостанции


Название, широта, долгота, высота метеостанции:
Жалтыр 51.6°ш. 69.8°д. 620 м над ур. моря [Казахстан]

Дополнительная информация

В oтличие oт бoльшинства пoгoдных сайтoв мы публикуем пoдрoбную метеoинфoрмацию в детальнoм прoфессиoнальнoм фoрмате.

Характеристики температуры и влажнoсти вoздуха измеряются на высoте 2 м в тени вдали oт зданий и деревьев.
Скoрoсть ветра измеряется на высoте 10 м (на урoвне рoста челoвека скoрoсть ветра ниже в 1.5-2 раза). Если метеoстанция нахoдится в гoрoде или в лесу, тo скoрoсть ветра занижена на 2-4 м/с пo сравнению с oткрытым местoм. Скoрoсть ветра над акватoриями крупных рек и oзёр, а также на вершинах хoлмoв на 2-5 м/с выше, чем в oбычных услoвиях.
Атмoсфернoе давление в разных тoчках местнoсти мoжет значительнo oтличаться oт давления на метеoстанции, в зависимoсти oт услoвий рельефа (при пoдъёме на 10 м давление пoнижается примернo на 1 мм рт.ст.).